Time,TemperatureF,DewpointF,PressureIn,WindDirection,WindDirectionDegrees,WindSpeedMPH,WindSpeedGustMPH,Humidity,HourlyPrecipIn,Conditions,Clouds,dailyrainin,SoftwareType,DateUTC
2013-01-20 00:04:00,44.2,36.1,29.93,SE,136,4.0,5.0,73,0.00,,,0.00,Wunderground v.1.15,2013-01-20 05:04:00,
2013-01-20 00:09:00,44.2,36.1,29.93,West,269,4.0,7.0,73,0.00,,,0.00,Wunderground v.1.15,2013-01-20 05:09:00,
2013-01-20 00:14:00,44.1,36.0,29.92,SW,217,4.0,7.0,73,0.00,,,0.00,Wunderground v.1.15,2013-01-20 05:14:00,
2013-01-20 00:19:00,44.1,36.0,29.92,SW,224,4.0,4.0,73,0.00,,,0.00,Wunderground v.1.15,2013-01-20 05:19:00,
2013-01-20 00:24:00,44.0,35.9,29.92,SSW,195,4.0,7.0,73,0.00,,,0.00,Wunderground v.1.15,2013-01-20 05:24:00,
2013-01-20 00:34:00,44.0,35.9,29.92,WSW,248,4.0,7.0,73,0.00,,,0.00,Wunderground v.1.15,2013-01-20 05:34:00,
2013-01-20 00:44:00,43.9,35.8,29.91,SW,217,3.0,6.0,73,0.00,,,0.00,Wunderground v.1.15,2013-01-20 05:44:00,
2013-01-20 00:49:00,43.9,35.8,29.91,SSE,165,3.0,7.0,73,0.00,,,0.00,Wunderground v.1.15,2013-01-20 05:49:00,
2013-01-20 00:59:00,43.8,35.4,29.91,NNW,331,4.0,4.0,72,0.00,,,0.00,Wunderground v.1.15,2013-01-20 05:59:00,
2013-01-20 01:04:00,43.7,35.6,29.91,SW,228,4.0,7.0,73,0.00,,,0.00,Wunderground v.1.15,2013-01-20 06:04:00,
2013-01-20 01:14:00,43.4,35.0,29.90,South,188,4.0,7.0,72,0.00,,,0.00,Wunderground v.1.15,2013-01-20 06:14:00,
2013-01-20 01:19:00,43.3,35.2,29.90,SSE,152,4.0,4.0,73,0.00,,,0.00,Wunderground v.1.15,2013-01-20 06:19:00,
2013-01-20 01:29:00,43.0,34.6,29.89,SW,217,3.0,3.0,72,0.00,,,0.00,Wunderground v.1.15,2013-01-20 06:29:00,
2013-01-20 01:34:00,43.0,34.6,29.89,WSW,242,4.0,6.0,72,0.00,,,0.00,Wunderground v.1.15,2013-01-20 06:34:00,
2013-01-20 01:39:00,42.9,34.5,29.88,WNW,297,5.0,5.0,72,0.00,,,0.00,Wunderground v.1.15,2013-01-20 06:39:00,
2013-01-20 01:49:00,42.7,34.3,29.87,West,262,4.0,7.0,72,0.00,,,0.00,Wunderground v.1.15,2013-01-20 06:49:00,
2013-01-20 01:59:00,42.7,34.3,29.88,WSW,253,3.0,7.0,72,0.00,,,0.00,Wunderground v.1.15,2013-01-20 06:59:00,
2013-01-20 02:04:00,42.7,34.3,29.88,SW,220,3.0,7.0,72,0.00,,,0.00,Wunderground v.1.15,2013-01-20 07:04:00,
2013-01-20 02:14:00,42.7,34.3,29.88,SSE,166,4.0,7.0,72,0.00,,,0.00,Wunderground v.1.15,2013-01-20 07:14:00,
2013-01-20 02:19:00,42.7,34.3,29.88,West,276,4.0,4.0,72,0.00,,,0.00,Wunderground v.1.15,2013-01-20 07:19:00,
2013-01-20 02:29:00,42.7,34.3,29.87,SSW,208,3.0,3.0,72,0.00,,,0.00,Wunderground v.1.15,2013-01-20 07:29:00,
2013-01-20 02:34:00,42.7,34.3,29.86,SW,220,4.0,5.0,72,0.00,,,0.00,Wunderground v.1.15,2013-01-20 07:34:00,
2013-01-20 02:44:00,42.6,34.5,29.86,SSW,205,4.0,7.0,73,0.00,,,0.00,Wunderground v.1.15,2013-01-20 07:44:00,
2013-01-20 02:54:00,42.6,34.2,29.86,SW,225,3.0,7.0,72,0.00,,,0.00,Wunderground v.1.15,2013-01-20 07:54:00,
2013-01-20 03:04:00,42.6,34.2,29.85,WSW,239,3.0,7.0,72,0.00,,,0.00,Wunderground v.1.15,2013-01-20 08:04:00,
2013-01-20 03:14:00,42.5,34.1,29.85,WSW,243,4.0,7.0,72,0.00,,,0.00,Wunderground v.1.15,2013-01-20 08:14:00,
2013-01-20 03:19:00,42.5,34.5,29.85,SW,220,3.0,7.0,73,0.00,,,0.00,Wunderground v.1.15,2013-01-20 08:19:00,
2013-01-20 03:29:00,42.4,34.4,29.85,SE,135,3.0,7.0,73,0.00,,,0.00,Wunderground v.1.15,2013-01-20 08:29:00,
2013-01-20 03:34:00,42.4,34.4,29.84,WNW,288,3.0,7.0,73,0.00,,,0.00,Wunderground v.1.15,2013-01-20 08:34:00,
2013-01-20 03:44:00,42.3,34.3,29.84,WNW,295,3.0,7.0,73,0.00,,,0.00,Wunderground v.1.15,2013-01-20 08:44:00,
2013-01-20 03:49:00,42.2,34.2,29.83,NW,314,3.0,3.0,73,0.00,,,0.00,Wunderground v.1.15,2013-01-20 08:49:00,
2013-01-20 03:59:00,42.1,34.4,29.83,SSW,203,3.0,7.0,74,0.00,,,0.00,Wunderground v.1.15,2013-01-20 08:59:00,
2013-01-20 04:04:00,42.0,34.3,29.83,South,173,3.0,7.0,74,0.00,,,0.00,Wunderground v.1.15,2013-01-20 09:04:00,
2013-01-20 04:09:00,41.9,34.2,29.83,SW,231,3.0,7.0,74,0.00,,,0.00,Wunderground v.1.15,2013-01-20 09:09:00,
2013-01-20 04:19:00,41.6,34.3,29.83,South,191,3.0,7.0,75,0.00,,,0.00,Wunderground v.1.15,2013-01-20 09:19:00,
2013-01-20 04:29:00,41.3,34.0,29.82,SSW,208,2.0,7.0,75,0.00,,,0.00,Wunderground v.1.15,2013-01-20 09:29:00,
2013-01-20 04:34:00,41.2,33.9,29.82,SSW,203,2.0,7.0,75,0.00,,,0.00,Wunderground v.1.15,2013-01-20 09:34:00,
2013-01-20 04:44:00,41.0,33.7,29.82,South,177,2.0,7.0,75,0.00,,,0.00,Wunderground v.1.15,2013-01-20 09:44:00,
2013-01-20 04:49:00,40.8,33.5,29.81,SSW,193,2.0,7.0,75,0.00,,,0.00,Wunderground v.1.15,2013-01-20 09:49:00,
2013-01-20 04:59:00,40.7,33.4,29.81,SW,214,2.0,2.0,75,0.00,,,0.00,Wunderground v.1.15,2013-01-20 09:59:00,
2013-01-20 05:09:00,40.6,33.3,29.80,SW,219,2.0,11.0,75,0.00,,,0.00,Wunderground v.1.15,2013-01-20 10:09:00,
2013-01-20 05:19:00,40.2,33.2,29.79,WSW,252,2.0,2.0,76,0.00,,,0.00,Wunderground v.1.15,2013-01-20 10:19:00,
2013-01-20 05:24:00,40.2,33.2,29.79,WSW,239,2.0,11.0,76,0.00,,,0.00,Wunderground v.1.15,2013-01-20 10:24:00,
2013-01-20 05:34:00,40.1,33.1,29.78,SW,218,2.0,11.0,76,0.00,,,0.00,Wunderground v.1.15,2013-01-20 10:34:00,
2013-01-20 05:44:00,40.3,33.0,29.77,WSW,246,2.0,11.0,75,0.00,,,0.00,Wunderground v.1.15,2013-01-20 10:44:00,
2013-01-20 05:49:00,40.3,33.0,29.77,West,271,2.0,11.0,75,0.00,,,0.00,Wunderground v.1.15,2013-01-20 10:49:00,
2013-01-20 05:59:00,40.6,33.3,29.77,SW,236,3.0,3.0,75,0.00,,,0.00,Wunderground v.1.15,2013-01-20 10:59:00,
2013-01-20 06:04:00,40.7,33.4,29.76,SW,222,3.0,11.0,75,0.00,,,0.00,Wunderground v.1.15,2013-01-20 11:04:00,
2013-01-20 06:14:00,40.7,33.1,29.76,SSW,208,3.0,11.0,74,0.00,,,0.00,Wunderground v.1.15,2013-01-20 11:14:00,
2013-01-20 06:19:00,40.8,33.2,29.76,SSW,209,3.0,11.0,74,0.00,,,0.00,Wunderground v.1.15,2013-01-20 11:19:00,
2013-01-20 06:29:00,40.7,33.4,29.76,SSW,193,3.0,3.0,75,0.00,,,0.00,Wunderground v.1.15,2013-01-20 11:29:00,
2013-01-20 06:34:00,40.6,33.6,29.76,SSW,197,2.0,11.0,76,0.00,,,0.00,Wunderground v.1.15,2013-01-20 11:34:00,
2013-01-20 06:44:00,40.6,33.6,29.76,SSW,200,3.0,3.0,76,0.00,,,0.00,Wunderground v.1.15,2013-01-20 11:44:00,
2013-01-20 06:49:00,40.6,33.6,29.76,SW,225,3.0,3.0,76,0.00,,,0.00,Wunderground v.1.15,2013-01-20 11:49:00,
2013-01-20 06:59:00,40.6,33.6,29.75,South,183,2.0,11.0,76,0.00,,,0.00,Wunderground v.1.15,2013-01-20 11:59:00,
2013-01-20 07:09:00,40.9,33.6,29.75,WSW,239,3.0,11.0,75,0.00,,,0.00,Wunderground v.1.15,2013-01-20 12:09:00,
2013-01-20 07:19:00,41.2,33.5,29.75,South,188,4.0,4.0,74,0.00,,,0.00,Wunderground v.1.15,2013-01-20 12:19:00,
2013-01-20 07:29:00,41.2,33.5,29.75,WNW,285,3.0,11.0,74,0.00,,,0.00,Wunderground v.1.15,2013-01-20 12:29:00,
2013-01-20 07:34:00,41.3,33.6,29.75,East,95,3.0,11.0,74,0.00,,,0.00,Wunderground v.1.15,2013-01-20 12:34:00,
2013-01-20 07:44:00,41.6,33.2,29.74,SW,214,4.0,11.0,72,0.00,,,0.00,Wunderground v.1.15,2013-01-20 12:44:00,
2013-01-20 07:54:00,41.9,33.5,29.75,WSW,242,3.0,11.0,72,0.00,,,0.00,Wunderground v.1.15,2013-01-20 12:54:00,
2013-01-20 08:04:00,42.1,33.4,29.75,WNW,291,3.0,11.0,71,0.00,,,0.00,Wunderground v.1.15,2013-01-20 13:04:00,
2013-01-20 08:14:00,42.7,33.6,29.75,WSW,242,3.0,11.0,70,0.00,,,0.00,Wunderground v.1.15,2013-01-20 13:14:00,
2013-01-20 08:19:00,42.9,33.4,29.74,SW,217,3.0,3.0,69,0.00,,,0.00,Wunderground v.1.15,2013-01-20 13:19:00,
2013-01-20 08:29:00,43.7,33.5,29.74,North,356,4.0,4.0,67,0.00,,,0.00,Wunderground v.1.15,2013-01-20 13:29:00,
2013-01-20 08:34:00,44.1,33.5,29.75,WSW,242,4.0,11.0,66,0.00,,,0.00,Wunderground v.1.15,2013-01-20 13:34:00,
2013-01-20 08:39:00,44.5,33.5,29.74,WSW,248,4.0,11.0,65,0.00,,,0.00,Wunderground v.1.15,2013-01-20 13:39:00,
2013-01-20 08:49:00,45.1,33.6,29.74,SW,219,3.0,11.0,64,0.00,,,0.00,Wunderground v.1.15,2013-01-20 13:49:00,
2013-01-20 08:59:00,45.7,33.8,29.75,SW,236,4.0,4.0,63,0.00,,,0.00,Wunderground v.1.15,2013-01-20 13:59:00,
2013-01-20 09:09:00,46.5,33.8,29.75,SW,228,4.0,4.0,61,0.00,,,0.00,Wunderground v.1.15,2013-01-20 14:09:00,
2013-01-20 09:19:00,47.2,33.6,29.75,SW,228,4.0,11.0,59,0.00,,,0.00,Wunderground v.1.15,2013-01-20 14:19:00,
2013-01-20 09:29:00,47.9,33.8,29.75,West,276,4.0,4.0,58,0.00,,,0.00,Wunderground v.1.15,2013-01-20 14:29:00,
2013-01-20 09:34:00,48.3,33.8,29.75,NW,308,4.0,11.0,57,0.00,,,0.00,Wunderground v.1.15,2013-01-20 14:34:00,
2013-01-20 09:39:00,48.7,33.7,29.75,West,264,4.0,4.0,56,0.00,,,0.00,Wunderground v.1.15,2013-01-20 14:39:00,
2013-01-20 09:49:00,49.3,33.3,29.75,SW,221,4.0,11.0,54,0.00,,,0.00,Wunderground v.1.15,2013-01-20 14:49:00,
2013-01-20 09:59:00,49.9,33.4,29.75,SW,235,4.0,11.0,53,0.00,,,0.00,Wunderground v.1.15,2013-01-20 14:59:00,
2013-01-20 10:04:00,50.1,33.6,29.75,WSW,252,3.0,11.0,53,0.00,,,0.00,Wunderground v.1.15,2013-01-20 15:04:00,
2013-01-20 10:14:00,50.2,33.2,29.75,WSW,243,4.0,11.0,52,0.00,,,0.00,Wunderground v.1.15,2013-01-20 15:14:00,
2013-01-20 10:24:00,51.0,33.5,29.74,South,191,3.0,9.0,51,0.00,,,0.00,Wunderground v.1.15,2013-01-20 15:24:00,
2013-01-20 10:34:00,51.6,33.0,29.74,NE,50,4.0,4.0,49,0.00,,,0.00,Wunderground v.1.15,2013-01-20 15:34:00,
2013-01-20 10:44:00,52.4,33.3,29.74,SW,231,4.0,11.0,48,0.00,,,0.00,Wunderground v.1.15,2013-01-20 15:44:00,
2013-01-20 10:49:00,53.1,32.8,29.73,SSE,155,4.0,4.0,46,0.00,,,0.00,Wunderground v.1.15,2013-01-20 15:49:00,
2013-01-20 10:59:00,53.7,32.3,29.73,SSW,207,4.0,11.0,44,0.00,,,0.00,Wunderground v.1.15,2013-01-20 15:59:00,
2013-01-20 11:04:00,53.7,31.7,29.72,North,359,5.0,11.0,43,0.00,,,0.00,Wunderground v.1.15,2013-01-20 16:04:00,
2013-01-20 11:14:00,54.2,32.2,29.72,West,270,5.0,11.0,43,0.00,,,0.00,Wunderground v.1.15,2013-01-20 16:14:00,
2013-01-20 11:19:00,54.7,32.6,29.71,SSW,205,4.0,11.0,43,0.00,,,0.00,Wunderground v.1.15,2013-01-20 16:19:00,
2013-01-20 11:29:00,54.9,32.8,29.70,SW,215,5.0,5.0,43,0.00,,,0.00,Wunderground v.1.15,2013-01-20 16:29:00,
2013-01-20 11:34:00,54.7,32.0,29.69,NW,323,5.0,11.0,42,0.00,,,0.00,Wunderground v.1.15,2013-01-20 16:34:00,
2013-01-20 11:44:00,54.7,32.6,29.68,WNW,302,5.0,11.0,43,0.00,,,0.00,Wunderground v.1.15,2013-01-20 16:44:00,
2013-01-20 11:49:00,54.7,32.0,29.68,West,281,5.0,11.0,42,0.00,,,0.00,Wunderground v.1.15,2013-01-20 16:49:00,
2013-01-20 11:59:00,54.6,31.9,29.69,NW,323,6.0,6.0,42,0.00,,,0.00,Wunderground v.1.15,2013-01-20 16:59:00,
2013-01-20 12:04:00,54.4,31.2,29.68,West,277,6.0,11.0,41,0.00,,,0.00,Wunderground v.1.15,2013-01-20 17:04:00,
2013-01-20 12:14:00,54.2,31.6,29.68,SW,221,6.0,11.0,42,0.00,,,0.00,Wunderground v.1.15,2013-01-20 17:14:00,
2013-01-20 12:19:00,54.0,31.4,29.68,West,271,6.0,11.0,42,0.00,,,0.00,Wunderground v.1.15,2013-01-20 17:19:00,
2013-01-20 12:29:00,54.4,31.8,29.68,WSW,245,4.0,11.0,42,0.00,,,0.00,Wunderground v.1.15,2013-01-20 17:29:00,
2013-01-20 12:39:00,54.7,31.4,29.67,NNW,335,4.0,11.0,41,0.00,,,0.00,Wunderground v.1.15,2013-01-20 17:39:00,
2013-01-20 12:49:00,55.1,30.6,29.67,NW,326,4.0,11.0,39,0.00,,,0.00,Wunderground v.1.15,2013-01-20 17:49:00,
2013-01-20 12:59:00,55.0,30.5,29.67,NNW,331,5.0,5.0,39,0.00,,,0.00,Wunderground v.1.15,2013-01-20 17:59:00,
2013-01-20 13:09:00,54.9,29.7,29.67,West,274,4.0,11.0,38,0.00,,,0.00,Wunderground v.1.15,2013-01-20 18:09:00,
2013-01-20 13:14:00,54.3,29.8,29.67,WNW,294,5.0,11.0,39,0.00,,,0.00,Wunderground v.1.15,2013-01-20 18:14:00,
2013-01-20 13:24:00,54.8,30.3,29.67,ENE,57,4.0,11.0,39,0.00,,,0.00,Wunderground v.1.15,2013-01-20 18:24:00,
2013-01-20 13:34:00,54.5,30.0,29.67,NW,304,5.0,11.0,39,0.00,,,0.00,Wunderground v.1.15,2013-01-20 18:34:00,
2013-01-20 13:44:00,54.2,31.0,29.67,WSW,254,4.0,11.0,41,0.00,,,0.00,Wunderground v.1.15,2013-01-20 18:44:00,
2013-01-20 13:49:00,53.7,30.5,29.68,West,266,4.0,4.0,41,0.00,,,0.00,Wunderground v.1.15,2013-01-20 18:49:00,
2013-01-20 13:59:00,53.2,30.7,29.68,WSW,250,5.0,5.0,42,0.00,,,0.00,Wunderground v.1.15,2013-01-20 18:59:00,
2013-01-20 14:09:00,53.2,30.7,29.68,WNW,284,4.0,11.0,42,0.00,,,0.00,Wunderground v.1.15,2013-01-20 19:09:00,
2013-01-20 14:19:00,52.7,30.2,29.69,North,4,4.0,11.0,42,0.00,,,0.00,Wunderground v.1.15,2013-01-20 19:19:00,
2013-01-20 14:29:00,52.3,30.4,29.69,WNW,289,4.0,4.0,43,0.00,,,0.00,Wunderground v.1.15,2013-01-20 19:29:00,
2013-01-20 14:34:00,52.2,29.8,29.69,NNE,25,4.0,7.0,42,0.00,,,0.00,Wunderground v.1.15,2013-01-20 19:34:00,
2013-01-20 14:44:00,51.8,30.6,29.70,WNW,293,5.0,11.0,44,0.00,,,0.00,Wunderground v.1.15,2013-01-20 19:44:00,
2013-01-20 14:49:00,51.6,30.4,29.70,North,351,4.0,4.0,44,0.00,,,0.00,Wunderground v.1.15,2013-01-20 19:49:00,
2013-01-20 14:59:00,51.2,28.9,29.71,West,273,4.0,11.0,42,0.00,,,0.00,Wunderground v.1.15,2013-01-20 19:59:00,
2013-01-20 15:09:00,51.3,28.4,29.72,WNW,295,4.0,11.0,41,0.00,,,0.00,Wunderground v.1.15,2013-01-20 20:09:00,
2013-01-20 15:19:00,51.4,27.2,29.72,NW,311,3.0,3.0,39,0.00,,,0.00,Wunderground v.1.15,2013-01-20 20:19:00,
2013-01-20 15:29:00,51.1,27.6,29.73,WSW,248,3.0,11.0,40,0.00,,,0.00,Wunderground v.1.15,2013-01-20 20:29:00,
2013-01-20 15:39:00,51.3,26.5,29.72,NW,314,2.0,11.0,38,0.00,,,0.00,Wunderground v.1.15,2013-01-20 20:39:00,
2013-01-20 15:49:00,51.6,24.8,29.73,WSW,242,3.0,11.0,35,0.00,,,0.00,Wunderground v.1.15,2013-01-20 20:49:00,
2013-01-20 15:55:00,51.4,23.2,29.73,ENE,70,4.0,11.0,33,0.00,,,0.00,Wunderground v.1.15,2013-01-20 20:55:00,
2013-01-20 16:04:00,50.7,21.9,29.74,SW,233,4.0,11.0,32,0.00,,,0.00,Wunderground v.1.15,2013-01-20 21:04:00,
2013-01-20 16:14:00,49.9,22.6,29.75,NNW,340,4.0,6.0,34,0.00,,,0.00,Wunderground v.1.15,2013-01-20 21:14:00,
2013-01-20 16:19:00,49.5,22.3,29.75,WNW,286,3.0,11.0,34,0.00,,,0.00,Wunderground v.1.15,2013-01-20 21:19:00,
2013-01-20 16:24:00,49.2,20.6,29.75,WNW,302,4.0,11.0,32,0.00,,,0.00,Wunderground v.1.15,2013-01-20 21:24:00,
2013-01-20 16:34:00,48.7,20.1,29.75,WNW,290,4.0,11.0,32,0.00,,,0.00,Wunderground v.1.15,2013-01-20 21:34:00,
2013-01-20 16:39:00,48.4,19.9,29.76,NW,316,4.0,11.0,32,0.00,,,0.00,Wunderground v.1.15,2013-01-20 21:39:00,
2013-01-20 16:49:00,47.9,19.4,29.77,WNW,297,5.0,5.0,32,0.00,,,0.00,Wunderground v.1.15,2013-01-20 21:49:00,
2013-01-20 16:59:00,47.5,19.8,29.78,North,351,5.0,11.0,33,0.00,,,0.00,Wunderground v.1.15,2013-01-20 21:59:00,
2013-01-20 17:04:00,47.3,18.9,29.78,NNE,32,5.0,11.0,32,0.00,,,0.00,Wunderground v.1.15,2013-01-20 22:04:00,
2013-01-20 17:09:00,47.2,18.8,29.78,WNW,301,5.0,11.0,32,0.00,,,0.00,Wunderground v.1.15,2013-01-20 22:09:00,
2013-01-20 17:19:00,47.0,18.6,29.79,WNW,297,4.0,4.0,32,0.00,,,0.00,Wunderground v.1.15,2013-01-20 22:19:00,
2013-01-20 17:29:00,46.7,18.4,29.80,NW,311,4.0,4.0,32,0.00,,,0.00,Wunderground v.1.15,2013-01-20 22:29:00,
2013-01-20 17:34:00,46.5,18.9,29.80,WNW,302,4.0,5.0,33,0.00,,,0.00,Wunderground v.1.15,2013-01-20 22:34:00,
2013-01-20 17:44:00,46.4,18.8,29.81,NNW,340,5.0,5.0,33,0.00,,,0.00,Wunderground v.1.15,2013-01-20 22:44:00,
2013-01-20 17:54:00,46.1,19.2,29.81,SSW,194,4.0,11.0,34,0.00,,,0.00,Wunderground v.1.15,2013-01-20 22:54:00,
2013-01-20 18:04:00,45.8,19.7,29.82,NW,318,3.0,11.0,35,0.00,,,0.00,Wunderground v.1.15,2013-01-20 23:04:00,
2013-01-20 18:14:00,45.3,23.5,29.84,NW,322,4.0,11.0,42,0.00,,,0.00,Wunderground v.1.15,2013-01-20 23:14:00,
2013-01-20 18:19:00,44.5,24.5,29.84,North,9,5.0,11.0,45,0.00,,,0.00,Wunderground v.1.15,2013-01-20 23:19:00,
2013-01-20 18:24:00,43.7,24.8,29.85,North,357,5.0,11.0,47,0.00,,,0.00,Wunderground v.1.15,2013-01-20 23:24:00,
2013-01-20 18:34:00,42.8,23.9,29.85,NNW,345,5.0,11.0,47,0.00,,,0.00,Wunderground v.1.15,2013-01-20 23:34:00,
2013-01-20 18:44:00,42.2,24.9,29.86,North,6,3.0,11.0,50,0.00,,,0.00,Wunderground v.1.15,2013-01-20 23:44:00,
2013-01-20 18:49:00,41.8,24.0,29.87,NW,323,4.0,11.0,49,0.00,,,0.00,Wunderground v.1.15,2013-01-20 23:49:00,
2013-01-20 18:59:00,41.0,23.3,29.88,NNW,332,6.0,6.0,49,0.00,,,0.00,Wunderground v.1.15,2013-01-20 23:59:00,
2013-01-20 19:04:00,40.6,21.9,29.88,NW,310,6.0,11.0,47,0.00,,,0.00,Wunderground v.1.15,2013-01-21 00:04:00,
2013-01-20 19:09:00,40.3,22.1,29.88,NW,319,5.0,5.0,48,0.00,,,0.00,Wunderground v.1.15,2013-01-21 00:09:00,
2013-01-20 19:19:00,39.9,22.7,29.89,NE,39,4.0,11.0,50,0.00,,,0.00,Wunderground v.1.15,2013-01-21 00:19:00,
2013-01-20 19:24:00,39.6,22.0,29.89,North,8,3.0,11.0,49,0.00,,,0.00,Wunderground v.1.15,2013-01-21 00:24:00,
2013-01-20 19:34:00,39.2,20.6,29.90,North,8,3.0,11.0,47,0.00,,,0.00,Wunderground v.1.15,2013-01-21 00:34:00,
2013-01-20 19:39:00,39.0,20.5,29.90,NNW,337,4.0,11.0,47,0.00,,,0.00,Wunderground v.1.15,2013-01-21 00:39:00,
2013-01-20 19:49:00,38.6,19.1,29.92,North,359,4.0,11.0,45,0.00,,,0.00,Wunderground v.1.15,2013-01-21 00:49:00,
2013-01-20 19:59:00,38.2,19.7,29.93,NW,308,4.0,4.0,47,0.00,,,0.00,Wunderground v.1.15,2013-01-21 00:59:00,
2013-01-20 20:04:00,38.0,19.5,29.93,NNE,30,4.0,8.0,47,0.00,,,0.00,Wunderground v.1.15,2013-01-21 01:04:00,
2013-01-20 20:14:00,37.6,18.7,29.94,WNW,285,4.0,11.0,46,0.00,,,0.00,Wunderground v.1.15,2013-01-21 01:14:00,
2013-01-20 20:19:00,37.5,17.5,29.94,NW,325,5.0,11.0,44,0.00,,,0.00,Wunderground v.1.15,2013-01-21 01:19:00,
2013-01-20 20:29:00,37.0,17.1,29.94,WNW,299,4.0,4.0,44,0.00,,,0.00,Wunderground v.1.15,2013-01-21 01:29:00,
2013-01-20 20:34:00,36.9,16.5,29.94,North,6,3.0,11.0,43,0.00,,,0.00,Wunderground v.1.15,2013-01-21 01:34:00,
2013-01-20 20:44:00,36.5,16.6,29.95,North,350,4.0,11.0,44,0.00,,,0.00,Wunderground v.1.15,2013-01-21 01:44:00,
2013-01-20 20:49:00,36.3,16.4,29.95,NNE,32,4.0,11.0,44,0.00,,,0.00,Wunderground v.1.15,2013-01-21 01:49:00,
2013-01-20 20:59:00,36.1,15.7,29.96,North,359,5.0,5.0,43,0.00,,,0.00,Wunderground v.1.15,2013-01-21 01:59:00,
2013-01-20 21:04:00,35.9,15.5,29.96,NE,46,4.0,11.0,43,0.00,,,0.00,Wunderground v.1.15,2013-01-21 02:04:00,
2013-01-20 21:14:00,35.8,17.0,29.97,SW,226,4.0,4.0,46,0.00,,,0.00,Wunderground v.1.15,2013-01-21 02:14:00,
2013-01-20 21:19:00,35.6,17.3,29.97,NNE,18,3.0,11.0,47,0.00,,,0.00,Wunderground v.1.15,2013-01-21 02:19:00,
2013-01-20 21:29:00,35.5,17.7,29.97,North,351,4.0,11.0,48,0.00,,,0.00,Wunderground v.1.15,2013-01-21 02:29:00,
2013-01-20 21:34:00,35.4,18.1,29.97,NNW,342,5.0,11.0,49,0.00,,,0.00,Wunderground v.1.15,2013-01-21 02:34:00,
2013-01-20 21:39:00,35.2,17.9,29.97,ENE,58,5.0,5.0,49,0.00,,,0.00,Wunderground v.1.15,2013-01-21 02:39:00,
2013-01-20 21:49:00,34.8,17.6,29.98,NE,39,5.0,11.0,49,0.00,,,0.00,Wunderground v.1.15,2013-01-21 02:49:00,
2013-01-20 21:59:00,34.3,17.6,29.98,NW,309,4.0,11.0,50,0.00,,,0.00,Wunderground v.1.15,2013-01-21 02:59:00,
2013-01-20 22:04:00,34.1,17.4,29.99,West,276,4.0,11.0,50,0.00,,,0.00,Wunderground v.1.15,2013-01-21 03:04:00,
2013-01-20 22:14:00,33.8,16.2,29.98,NNE,18,5.0,11.0,48,0.00,,,0.00,Wunderground v.1.15,2013-01-21 03:14:00,
2013-01-20 22:19:00,33.7,16.1,29.99,NW,314,5.0,11.0,48,0.00,,,0.00,Wunderground v.1.15,2013-01-21 03:19:00,
2013-01-20 22:29:00,33.5,16.8,29.99,NW,320,5.0,11.0,50,0.00,,,0.00,Wunderground v.1.15,2013-01-21 03:29:00,
2013-01-20 22:34:00,33.4,16.3,29.99,NNW,337,5.0,11.0,49,0.00,,,0.00,Wunderground v.1.15,2013-01-21 03:34:00,
2013-01-20 22:44:00,33.2,15.6,29.99,ENE,60,6.0,11.0,48,0.00,,,0.00,Wunderground v.1.15,2013-01-21 03:44:00,
2013-01-20 22:49:00,33.0,15.9,30.00,NW,325,4.0,4.0,49,0.00,,,0.00,Wunderground v.1.15,2013-01-21 03:49:00,
2013-01-20 22:59:00,32.7,15.6,30.00,NW,314,5.0,11.0,49,0.00,,,0.00,Wunderground v.1.15,2013-01-21 03:59:00,
2013-01-20 23:04:00,32.6,16.0,30.00,NNW,347,5.0,11.0,50,0.00,,,0.00,Wunderground v.1.15,2013-01-21 04:04:00,
2013-01-20 23:14:00,32.4,15.8,30.00,NNW,330,5.0,11.0,50,0.00,,,0.00,Wunderground v.1.15,2013-01-21 04:14:00,
2013-01-20 23:24:00,32.2,16.1,30.00,West,281,6.0,12.0,51,0.00,,,0.00,Wunderground v.1.15,2013-01-21 04:24:00,
2013-01-20 23:34:00,31.8,15.7,30.00,NW,326,4.0,11.0,51,0.00,,,0.00,Wunderground v.1.15,2013-01-21 04:34:00,
2013-01-20 23:44:00,31.5,16.3,30.01,NE,41,4.0,8.0,53,0.00,,,0.00,Wunderground v.1.15,2013-01-21 04:44:00,
2013-01-20 23:49:00,31.3,15.7,30.01,NNW,335,4.0,4.0,52,0.00,,,0.00,Wunderground v.1.15,2013-01-21 04:49:00,
2013-01-20 23:59:00,31.0,14.0,30.02,NNE,15,5.0,11.0,49,0.00,,,0.00,Wunderground v.1.15,2013-01-21 04:59:00,